TIME,DELAY(SENSOR),PRES,OXYGEN,RAWTEMP,T(OPTODE),TCPHASE,FLUOR,BETA(BETA700),BETA(BETA412),BETA(BETA440),CDOM,C(CSC),ED(ED411.90),ED(ED443.80),ED(ED489.40),ED(ED554.70),LU(LU412.20),LU(LU443.80),LU(LU489.40),LU(LU555.00),COMP,TILTX,TILTY,CHECK
1358374694,5807,857.0999755859375000,163.7050018310547000,439.0683898925781000,9.4083976745605470,39.3307189941406250,53,103,95,80,80,12340,2146961920,2147515693,2147289709,2147503561,2147091931,2146932928,2147706669,2147124178,245,-1,9,42267
1358378291,5807,968.4500122070312000,197.6763000488281200,501.7952880859375000,7.4737858772277830,38.0750808715820300,53,106,97,79,79,12335,2146967104,2147517120,2147294884,2147514450,2147087789,2146920996,2147718710,2147120704,392,-1,9,36422
1358381891,5808,996.2299804687500000,207.2709045410156200,512.6538696289062000,7.1363749504089355,37.6803207397460940,53,105,98,80,81,12335,2146962505,2147516653,2147301174,2147515986,2147088173,2146923776,2147718628,2147120448,315,-1,8,32709
1358385491,5803,998.2299804687500000,208.4385986328125000,513.5136718750000000,7.1096258163452150,37.6253814697265600,53,101,96,79,80,12321,2146962304,2147515510,2147297819,2147512658,2147086665,2146929078,2147723264,2147122029,3556,-1,8,27316
1358389091,5806,1001.9500122070312000,208.8692016601562500,514.7683715820312000,7.0705790519714355,37.6229515075683600,53,102,99,79,81,12322,2146966793,2147516050,2147297627,2147516224,2147090285,2146923977,2147717897,2147121709,3062,-1,8,29062
1358392691,5806,1005.2999877929688000,211.0263977050781200,515.4378051757812000,7.0497407913208010,37.5071716308593750,53,103,98,79,81,12319,2146963611,2147516708,2147297270,2147518875,2147087954,2146922258,2147722093,2147120658,3529,-1,9,1127
1358396291,5808,1007.3400268554688000,212.1159973144531200,515.7250976562500000,7.0407972335815430,37.4493408203125000,52,102,98,79,81,12284,2146962496,2147518518,2147296649,2147516736,2147090806,2146927981,2147723044,2147121060,141,-1,9,53728
1358399891,5805,1011.0200195312500000,212.6717987060547000,516.0427856445312000,7.0309071540832520,37.4228401184082000,53,103,97,79,80,12284,2146962633,2147514870,2147294939,2147514486,2147088192,2146925001,2147720182,2147122532,3535,-1,9,21608
1358403491,5807,1005.8300170898438000,211.6721038818359400,516.8021240234375000,7.0072631835937500,37.4933815002441400,53,103,98,78,81,12280,2146965330,2147516160,2147295524,2147517019,2147088978,2146923666,2147722916,2147121901,3330,-1,9,38032
1358407091,5807,1005.3900146484375000,212.4720001220703000,518.1176757812500000,6.9662909507751465,37.4704704284668000,53,108,99,79,81,12280,2146965750,2147513444,2147297874,2147515565,2147092196,2146922861,2147724480,2147123602,3263,-1,9,29116
1358410691,5805,1001.4400024414062000,211.8302001953125000,519.2700195312500000,6.9303941726684570,37.5282897949218750,53,111,97,79,81,12279,2146962898,2147519625,2147297618,2147517421,2147091072,2146923986,2147722139,2147122797,1066,-1,9,40240
1358414291,5805,1002.5700073242188000,215.3488006591797000,519.9686889648438000,6.9086217880249020,37.3370704650878900,52,103,99,79,80,12280,2146964534,2147515190,2147298322,2147514998,2147088329,2146922377,2147718875,2147123620,3250,-1,9,31302
1358417891,5805,999.0999755859375000,216.7928924560547000,522.5156860351562000,6.8292288780212400,37.3001403808593750,53,105,99,80,80,12281,2146964132,2147515712,2147297060,2147515072,2147089856,2146922843,2147721737,2147119945,3305,-1,9,5879
1358421491,5807,1003.5499877929688000,216.2935028076172000,522.5814819335938000,6.8271770477294920,37.3298606872558600,54,101,99,80,80,12279,2146964653,2147518729,2147298733,2147517988,2147088265,2146923090,2147722130,2147123264,3592,-1,9,8865
1358425091,5805,1003.0999755859375000,216.9340972900390600,521.8923950195312000,6.8486618995666500,37.2814292907714840,53,103,99,80,80,12275,2146962432,2147519021,2147296219,2147520146,2147088173,2146927414,2147723995,2147124662,3498,-1,9,58924
1358428691,5807,1009.2199707031250000,215.2216033935547000,520.3057250976562000,6.8981208801269530,37.3505592346191400,52,103,97,79,81,12276,2146962358,2147518902,2147297197,2147516653,2147091273,2146923382,2147722861,2147119113,55,0,8,17064
1358432291,5805,1010.9199829101562000,214.2066955566406200,519.5222167968750000,6.9225349426269530,37.3954200744628900,53,103,99,80,81,12268,2146961234,2147517622,2147295680,2147515638,2147088594,2146926244,2147717897,2147119853,285,-1,8,32784
1358435891,5804,1012.5999755859375000,214.3618927001953000,518.9539184570312000,6.9402427673339840,37.3759193420410160,53,103,98,78,82,12269,2146960146,2147519405,2147295286,2147520630,2147092992,2146925540,2147722633,2147121490,3287,-1,9,62281
1358439491,5802,1016.4500122070312000,213.8128051757812500,517.4420166015625000,6.9873380661010740,37.3807716369628900,54,109,101,79,81,12270,2146963026,2147518400,2147296877,2147515675,2147088585,2146923739,2147721874,2147120018,2372,-1,9,27719
1358443091,5803,1012.7000122070312000,214.0773010253906200,518.9547119140625000,6.9402179718017580,37.3922386169433600,53,104,99,79,80,12265,2146963867,2147512749,2147295716,2147518939,2147089810,2146927680,2147718436,2147120896,3475,-1,9,20010
1358446691,5805,1014.3900146484375000,214.0655059814453000,518.8817749023438000,6.9424891471862790,37.3923606872558600,53,103,96,79,82,12267,2146962203,2147517412,2147299867,2147515035,2147090386,2146924022,2147721280,2147120064,3338,-1,8,591
1358450291,5808,1016.0200195312500000,214.3182067871093800,518.8746948242188000,6.9427089691162110,37.3773117065429700,53,103,97,79,81,12265,2146965897,2147515428,2147297856,2147516214,2147087085,2146923867,2147725385,2147120338,3419,-1,9,51712
1358453891,5805,1009.0000000000000000,214.9138031005859400,519.2495117187500000,6.9310312271118160,37.3500099182128900,53,103,99,79,80,12268,2146962834,2147521243,2147298221,2147518482,2147089316,2146925312,2147720987,2147118802,191,-1,9,40290
1358457491,5805,1008.7100219726562000,215.0749969482422000,520.6702880859375000,6.8867568969726560,37.3653602600097660,53,102,97,79,81,12264,2146964544,2147517860,2147297920,2147519195,2147089060,2146923666,2147729133,2147121389,3451,-1,9,37076
1358461091,5806,1012.3599853515625000,215.3887023925781200,520.4497070312500000,6.8936319351196290,37.3441696166992200,52,103,97,79,80,12265,2146962185,2147518829,2147296118,2147516013,2147089243,2146927817,2147723392,2147121408,155,-1,9,61280
1358464691,5807,1010.3400268554688000,216.1076049804687500,522.8762207031250000,6.8179879188537600,37.3460693359375000,53,105,97,78,80,12265,2146964598,2147515693,2147293522,2147517302,2147090185,2146921426,2147719305,2147123904,188,-1,9,50962
1358468291,5806,1008.2999877929688000,217.7557067871093800,522.4260864257812000,6.8320212364196780,37.2437095642089840,53,106,97,78,81,12266,2146961819,2147516233,2147297645,2147519323,2147088347,2146920630,2147725705,2147124928,827,-1,9,39762
1358471891,5805,1007.3300170898438000,216.2440948486328000,522.4215087890625000,6.8321661949157715,37.3297805786132800,53,102,97,79,80,12239,2146960832,2147517632,2147297828,2147518326,2147090304,2146921353,2147723373,2147122404,2984,-1,9,65015
1358475491,5806,1014.3300170898438000,216.5509033203125000,521.1082153320312000,6.8731098175048830,37.2893218994140600,53,103,97,78,80,12240,2146966043,2147516196,2147300809,2147519003,2147093293,2146925988,2147723382,2147121819,1927,-1,9,36924
1358479091,5808,1014.3900146484375000,215.0567016601562500,520.1166992187500000,6.9040088653564450,37.3572807312011700,53,104,98,79,81,12236,2146963757,2147516562,2147295780,2147515776,2147094646,2146923547,2147721956,2147119030,3575,-1,9,19982
1358482691,5805,1015.8800048828125000,213.4830017089843800,520.7103881835938000,6.8855061531066895,37.4577217102050800,53,102,97,79,79,12232,2146963949,2147517083,2147295332,2147517504,2147090752,2146929590,2147721572,2147123620,3518,-1,9,59461
1358486291,5808,1016.4299926757812000,214.4134979248047000,520.3040771484375000,6.8981699943542480,37.3974304199218750,52,104,98,77,81,12236,2146961947,2147519670,2147297920,2147515638,2147091328,2146922523,2147721298,2147121956,86,-1,8,52626
1358489891,5807,1014.7899780273438000,213.8777008056640600,520.3281250000000000,6.8974227905273440,37.4288597106933600,54,105,98,79,80,12234,2146964882,2147516013,2147295780,2147519954,2147090331,2146926244,2147725174,2147121664,355,-1,8,7492
1358493491,5803,1014.2399902343750000,215.4463958740234400,521.2908935546875000,6.8674130439758300,37.3555412292480500,53,105,98,79,81,12230,2146963629,2147517339,2147294774,2147520228,2147090660,2146930578,2147725869,2147123456,3226,-1,9,48664
1358497091,5808,1013.8800048828125000,216.1748962402343800,521.1843261718750000,6.8707370758056640,37.3117294311523440,53,104,97,78,81,12233,2146964379,2147519387,2147294070,2147517787,2147090212,2146920009,2147718738,2147121764,43,-1,9,43357
1358500691,5807,1012.4099731445312000,216.3919067382812500,522.9885253906250000,6.8144869804382320,37.3318786621093750,53,102,97,79,81,12220,2146965065,2147516361,2147297920,2147517156,2147091968,2146932800,2147720877,2147121901,3278,-1,9,58567
1358504291,5807,1011.2500000000000000,215.2673950195312500,522.4716796875000000,6.8305997848510740,37.3860893249511700,53,103,98,79,80,12231,2146961261,2147517915,2147296658,2147518171,2147090038,2146929837,2147724461,2147123355,115,-1,9,38051
1358507891,5803,1017.1099853515625000,214.8995971679687500,519.0344238281250000,6.9377331733703610,37.3468208312988300,52,104,97,80,81,12228,2146962889,2147512832,2147296100,2147516745,2147093110,2146924434,2147721929,2147121581,3443,-1,9,49297
1358511491,5805,1011.5300292968750000,214.5659942626953000,522.7612304687500000,6.8215742111206055,37.4321784973144500,53,104,97,82,80,12231,2146961490,2147516416,2147295972,2147517120,2147087478,2146924717,2147727552,2147122075,304,-1,8,38717
1358515091,5803,1017.4600219726562000,217.0225982666015600,522.9298706054688000,6.8163118362426760,37.2945899963378900,52,105,96,78,81,12227,2146962962,2147515840,2147297216,2147519670,2147089517,2146926537,2147723894,2147121691,2850,-1,9,36482
1358518691,5809,1015.4699707031250000,213.7445983886718800,518.7369995117188000,6.9469990730285645,37.4078903198242200,54,103,97,78,81,12230,2146964160,2147518317,2147297627,2147518052,2147092452,2146922934,2147725321,2147119515,3592,-1,9,23867
1358519156,5805,10.5000000000000000,213.7801971435547000,518.6998291015625000,6.9481568336486820,37.4056510925293000,52,113,97,79,79,12256,2146965421,2147517805,2147297517,2147519616,2147090788,2146924114,2147726500,2147123346,3528,-1,9,27714
